Thermopolis, WY

7:39 PM MDT on July 21, 2017 (GMT -0600)
Thermopolis

Weather History for KTBX - July, 2013

Change the Weather History Date:

Saturday, July 13, 2013

  Actual Average (KWRL) Record (KWRL)
Temperature  
Mean Temperature 68 °F -  
Max Temperature 77 °F 90 °F 106 °F (2005)
Min Temperature 57 °F 56 °F 43 °F (1992)
Cooling Degree Days 3    
Growing Degree Days 18 (Base 50)    
Moisture  
Dew Point 38 °F    
Average Humidity 35    
Maximum Humidity 72    
Minimum Humidity 16    
Precipitation  
Precipitation 0.00 in - - ()
Sea Level Pressure  
Sea Level Pressure 30.33 in    
Wind  
Wind Speed 10 mph (SSE)    
Max Wind Speed 20 mph    
Max Gust Speed 20 mph    
Visibility 10 miles    
Events      
Averages and records for this station are not official NWS values.
T = Trace of Precipitation, MM = Missing Value Source: NWS Daily Summary

Daily Weather History Graph

Daily Weather History Graph

Search for Another Location

Airport or City:

Trip Planner

Search our weather history database for the weather conditions in past years. The results will help you decide how hot, cold, wet, or windy it might be!

Date:

Astronomy

Jul. 13, 2013 Rise Set
Actual Time 5:44 AM MDT 8:52 PM MDT
Civil Twilight 5:09 AM MDT 9:27 PM MDT
Nautical Twilight 4:25 AM MDT 10:11 PM MDT
Astronomical Twilight 3:31 AM MDT 11:04 PM MDT
Moon 11:14 AM MDT (7/13) 11:22 PM MDT (7/13)
Length of Visible Light 16h 17m
Length of Day
15h 08m
Waxing Crescent, 26% of the Moon is Illuminated
Jul 13
Waxing Crescent
Jul 15
First Quarter
Jul 22
Full
Jul 29
Last Quarter
Aug 6
New

Hourly Weather History & Observations

Time (MDT) Temp. Dew Point Humidity Pressure Visibility Wind Dir Wind Speed Gust Speed Precip Events Conditions
12:15 AM 64.4 °F 44.6 °F 49% 30.27 in 10.0 mi SE 15.0 mph - N/A   Clear
12:35 AM 62.6 °F 46.4 °F 55% 30.28 in 10.0 mi ESE 12.7 mph - N/A   Clear
12:55 AM 64.4 °F 46.4 °F 52% 30.28 in 10.0 mi ESE 9.2 mph - N/A   Clear
1:15 AM 64.4 °F 46.4 °F 52% 30.28 in 10.0 mi ESE 9.2 mph - N/A   Clear
1:35 AM 64.4 °F 46.4 °F 52% 30.28 in 10.0 mi ESE 5.8 mph 9.2 mph N/A   Clear
1:55 AM 64.4 °F 44.6 °F 49% 30.28 in 10.0 mi SE 5.8 mph - N/A   Clear
2:15 AM 64.4 °F 44.6 °F 49% 30.28 in 10.0 mi SSE 3.5 mph - N/A   Clear
2:35 AM 64.4 °F 44.6 °F 49% 30.28 in 10.0 mi SE 6.9 mph - N/A   Clear
2:55 AM 64.4 °F 44.6 °F 49% 30.28 in 10.0 mi SSE 4.6 mph - N/A   Clear
3:15 AM 64.4 °F 44.6 °F 49% 30.28 in 10.0 mi Calm Calm - N/A   Clear
3:35 AM 64.4 °F 41.0 °F 42% 30.28 in 10.0 mi South 8.1 mph - N/A   Clear
3:55 AM 64.4 °F 41.0 °F 42% 30.28 in 10.0 mi South 9.2 mph - N/A   Clear
4:15 AM 64.4 °F 39.2 °F 40% 30.28 in 10.0 mi South 8.1 mph - N/A   Clear
4:35 AM 64.4 °F 37.4 °F 37% 30.28 in 10.0 mi South 10.4 mph - N/A   Clear
4:55 AM 64.4 °F 37.4 °F 37% 30.28 in 10.0 mi South 9.2 mph - N/A   Clear
5:15 AM 64.4 °F 37.4 °F 37% 30.29 in 10.0 mi South 9.2 mph - N/A   Clear
5:35 AM 64.4 °F 37.4 °F 37% 30.29 in 10.0 mi South 8.1 mph - N/A   Clear
5:55 AM 64.4 °F 37.4 °F 37% 30.29 in 10.0 mi South 9.2 mph - N/A   Clear
6:15 AM 64.4 °F 39.2 °F 40% 30.30 in 10.0 mi South 9.2 mph - N/A   Clear
6:35 AM 64.4 °F 39.2 °F 40% 30.30 in 10.0 mi South 9.2 mph - N/A   Clear
6:55 AM 64.4 °F 37.4 °F 37% 30.30 in 10.0 mi South 6.9 mph - N/A   Clear
7:15 AM 64.4 °F 39.2 °F 40% 30.31 in 10.0 mi South 5.8 mph - N/A   Clear
7:35 AM 64.4 °F 41.0 °F 42% 30.31 in 10.0 mi SSE 5.8 mph - N/A   Clear
7:55 AM 64.4 °F 44.6 °F 49% 30.32 in 10.0 mi SE 4.6 mph - N/A   Clear
8:15 AM 66.2 °F 42.8 °F 43% 30.32 in 10.0 mi SSE 6.9 mph - N/A   Clear
8:35 AM 68.0 °F 42.8 °F 40% 30.33 in 10.0 mi SE 4.6 mph - N/A   Clear
8:55 AM 68.0 °F 42.8 °F 40% 30.33 in 10.0 mi SSE 3.5 mph - N/A   Clear
9:15 AM 68.0 °F 42.8 °F 40% 30.33 in 10.0 mi SE 4.6 mph - N/A   Clear
9:35 AM 69.8 °F 41.0 °F 35% 30.34 in 10.0 mi SE 5.8 mph - N/A   Clear
9:55 AM 69.8 °F 42.8 °F 38% 30.33 in 10.0 mi SSE 3.5 mph - N/A   Scattered Clouds
10:15 AM 69.8 °F 42.8 °F 38% 30.33 in 10.0 mi ESE 10.4 mph - N/A   Clear
10:35 AM 68.0 °F 41.0 °F 37% 30.33 in 10.0 mi SE 6.9 mph - N/A   Clear
10:55 AM 69.8 °F 41.0 °F 35% 30.33 in 10.0 mi SE 9.2 mph - N/A   Clear
11:15 AM 71.6 °F 39.2 °F 31% 30.34 in 10.0 mi SE 13.8 mph 18.4 mph N/A   Clear
11:35 AM 71.6 °F 37.4 °F 29% 30.34 in 10.0 mi SE 11.5 mph 18.4 mph N/A   Scattered Clouds
11:55 AM 71.6 °F 37.4 °F 29% 30.34 in 10.0 mi SSE 9.2 mph 18.4 mph N/A   Scattered Clouds
12:15 PM 73.4 °F 37.4 °F 27% 30.34 in 10.0 mi SSE 10.4 mph 16.1 mph N/A   Scattered Clouds
12:35 PM 71.6 °F 35.6 °F 27% 30.34 in 10.0 mi SSE 10.4 mph 17.3 mph N/A   Scattered Clouds
12:55 PM 71.6 °F 35.6 °F 27% 30.34 in 10.0 mi SSE 10.4 mph - N/A   Mostly Cloudy
1:15 PM 71.6 °F 35.6 °F 27% 30.34 in 10.0 mi SE 12.7 mph - N/A   Overcast
1:35 PM 77.0 °F 33.8 °F 21% 30.34 in 10.0 mi SE 12.7 mph 19.6 mph N/A   Mostly Cloudy
1:55 PM 75.2 °F 26.6 °F 17% 30.33 in 10.0 mi SSE 12.7 mph 19.6 mph N/A   Scattered Clouds
2:15 PM 75.2 °F 28.4 °F 18% 30.34 in 10.0 mi SE 11.5 mph 18.4 mph N/A   Scattered Clouds
2:35 PM 77.0 °F 26.6 °F 16% 30.34 in 10.0 mi SSE 5.8 mph - N/A   Clear
2:55 PM 75.2 °F 28.4 °F 18% 30.34 in 10.0 mi SSE 12.7 mph 19.6 mph N/A   Mostly Cloudy
3:15 PM 73.4 °F 28.4 °F 19% 30.34 in 10.0 mi SSE 9.2 mph - N/A   Overcast
3:35 PM 73.4 °F 30.2 °F 20% 30.34 in 10.0 mi SSE 8.1 mph - N/A   Mostly Cloudy
3:55 PM 75.2 °F 30.2 °F 19% 30.34 in 10.0 mi SSW 4.6 mph - N/A   Scattered Clouds
4:15 PM 73.4 °F 30.2 °F 20% 30.34 in 10.0 mi Calm Calm - N/A   Mostly Cloudy
4:35 PM 71.6 °F 35.6 °F 27% 30.34 in 10.0 mi NW 19.6 mph - N/A   Overcast
4:55 PM 71.6 °F 35.6 °F 27% 30.34 in 10.0 mi NW 19.6 mph - N/A   Overcast
5:15 PM 71.6 °F 35.6 °F 27% 30.34 in 10.0 mi NNW 16.1 mph - N/A   Mostly Cloudy
5:35 PM 71.6 °F 35.6 °F 27% 30.34 in 10.0 mi NNW 17.3 mph - N/A   Overcast
5:55 PM 69.8 °F 35.6 °F 28% 30.33 in 10.0 mi NW 17.3 mph - N/A   Overcast
6:15 PM 69.8 °F 35.6 °F 28% 30.33 in 10.0 mi NW 12.7 mph - N/A   Overcast
6:35 PM 69.8 °F 35.6 °F 28% 30.34 in 10.0 mi NW 12.7 mph - N/A   Overcast
6:55 PM 71.6 °F 33.8 °F 25% 30.33 in 10.0 mi NW 13.8 mph - N/A   Scattered Clouds
7:15 PM 71.6 °F 33.8 °F 25% 30.34 in 10.0 mi NW 12.7 mph - N/A   Mostly Cloudy
7:35 PM 71.6 °F 33.8 °F 25% 30.34 in 10.0 mi NNW 12.7 mph - N/A   Scattered Clouds
7:55 PM 69.8 °F 35.6 °F 28% 30.34 in 10.0 mi NW 15.0 mph - N/A   Mostly Cloudy
8:15 PM 71.6 °F 33.8 °F 25% 30.34 in 10.0 mi NNW 12.7 mph - N/A   Overcast
8:35 PM 71.6 °F 33.8 °F 25% 30.35 in 10.0 mi NNW 11.5 mph - N/A   Overcast
8:55 PM 69.8 °F 35.6 °F 28% 30.36 in 10.0 mi North 10.4 mph - N/A   Overcast
9:15 PM 68.0 °F 33.8 °F 28% 30.36 in 10.0 mi North 10.4 mph - N/A   Scattered Clouds
9:35 PM 68.0 °F 33.8 °F 28% 30.37 in 10.0 mi North 10.4 mph - N/A   Mostly Cloudy
9:55 PM 68.0 °F 33.8 °F 28% 30.38 in 10.0 mi NNE 10.4 mph - N/A   Overcast
10:15 PM 69.8 °F 32.0 °F 25% 30.39 in 10.0 mi North 8.1 mph - N/A   Overcast
10:35 PM 69.8 °F 32.0 °F 25% 30.39 in 10.0 mi NNE 6.9 mph - N/A   Mostly Cloudy
10:55 PM 64.4 °F 39.2 °F 40% 30.40 in 10.0 mi NW 16.1 mph - N/A   Mostly Cloudy
11:15 PM 60.8 °F 48.2 °F 63% 30.40 in 10.0 mi WNW 12.7 mph - N/A   Scattered Clouds
11:35 PM 59.0 °F 48.2 °F 67% 30.40 in 10.0 mi NW 16.1 mph - N/A   Clear
11:55 PM 57.2 °F 48.2 °F 72% 30.40 in 10.0 mi NW 17.3 mph - N/A   Clear